Location: Pasadena, ca
(34.1243°N, 118.1037°W)
Time: 16:52:15
(UTC-08:00)

Tiangong 2 - Pass Details

Date: 16 October 2017
Orbit: 386 x 390 km, 42.8° (Epoch: 14 December)

Event Time Altitude Azimuth Distance (km) Brightness Sun altitude
Exits shadow 04:44:54 11° 40° (NE) 1,386 4.4 -28.4°
Drops below altitude 10° 04:45:03 10° 42° (NE) 1,422 4.5 -28.4°
Sets 04:47:38 0° 64° (ENE) 2,279 6.1 -27.8°
